This demonstration page uses our WeatherBlox Daily Observations layout. Learn more.

Left ArrowRight Arrow

Hourly Observations for July 12, 2017

Temp ( °F °C ) Dew Point ( °F °C ) Humidity (%) Winds ( mph kmh ) Pressure ( in mb ) Visibility ( mi km ) Precip ( " mm )
12:15 am 00:15 Mostly Cloudy with Light Rain 80 26.8 72 22 75 75 SE 10 17 29.62 1003 10 16 0.00 0.00
12:35 am 00:35 Partly Cloudy 82 28 69 20.6 64 64 ESE 8 13 29.62 1003 10 16 0.00 0.00
12:55 am 00:55 Partly Cloudy with Nearby Thunderstorms 82 28 69 20.6 64 64 SSE 10 17 29.62 1003 10 16 0.00 0.00
1:15 am 01:15 Cloudy 81 27.2 68 19.8 64 64 NW 17 28 29.65 1004 10 16 0.00 0.00
1:35 am 01:35 Partly Cloudy 80 26.4 69 20.3 69 69 N 3 6 29.65 1004 10 16 0.00 0.00
1:55 am 01:55 Partly Cloudy with Nearby Thunderstorms 79 26.1 68 20 69 69 NE 8 13 29.65 1004 10 16 0.00 0.00
2:15 am 02:15 Mostly Cloudy with Nearby Thunderstorms 77 25 67 19.4 71 71 E 8 13 29.65 1004 10 16 0.00 0.00
2:35 am 02:35 Mostly Cloudy with Thunderstorms 78 25.6 66 19 67 67 E 9 15 29.65 1004 10 16 0.00 0.00
2:55 am 02:55 Mostly Cloudy with Thunderstorms 77 25.1 68 19.8 73 73 SSE 12 19 29.68 1005 10 16 0.00 0.00
3:15 am 03:15 Mostly Cloudy with Thunderstorms 76 24.3 66 18.9 72 72 S 8 13 29.71 1006 7 11 0.24 6.10
3:35 am 03:35 Partly Cloudy with Light Rain 75 23.9 68 20.2 80 80 SSE 10 17 29.71 1006 10 16 0.24 6.10
3:55 am 03:55 Partly Cloudy with Light Rain 74 23.5 67 19.4 78 78 E 6 9 29.68 1005 10 16 0.24 6.10
4:15 am 04:15 Clear 73 23 67 19.7 82 82 S 10 17 29.71 1006 10 16 0.00 0.00
4:35 am 04:35 Clear 73 23 67 19.5 81 81 S 8 13 29.71 1006 10 16 0.00 0.00
4:55 am 04:55 Clear with Nearby Thunderstorms 74 23.3 67 19.6 80 80 Calm 29.71 1006 10 16 0.00 0.00
5:15 am 05:15 Clear 73 22.8 69 20.3 86 86 Calm 29.71 1006 10 16 0.00 0.00
5:35 am 05:35 Partly Cloudy 74 23.5 70 21 86 86 NNE 6 9 29.71 1006 10 16 0.00 0.00
5:55 am 05:55 Partly Cloudy 78 25.7 68 20 71 71 NW 3 6 29.68 1005 10 16 0.00 0.00
6:15 am 06:15 Clear 77 25.2 69 20.5 75 75 WSW 7 11 29.74 1007 10 16 0.00 0.00
6:35 am 06:35 Partly Cloudy 76 24.6 69 20.6 78 78 WSW 7 11 29.77 1008 10 16 0.00 0.00
6:55 am 06:55 Mostly Cloudy with Thunderstorms 76 24.3 70 21 82 82 SSW 9 15 29.80 1009 10 16 0.00 0.00
7:15 am 07:15 Mostly Cloudy 77 25 69 20.4 76 76 S 13 20 29.80 1009 10 16 0.00 0.00
7:35 am 07:35 Cloudy with Thunderstorms 76 24.2 65 18.3 70 70 N 8 13 29.77 1008 3 4 0.28 7.11
7:55 am 07:55 Cloudy with Thunderstorms 74 23.6 66 19.1 76 76 NW 18 30 29.80 1009 10 16 0.29 7.37
8:15 am 08:15 Cloudy with Nearby Thunderstorms 73 22.7 66 18.8 79 79 N 17 28 29.80 1009 10 16 0.02 0.51
8:35 am 08:35 Partly Cloudy with Light Rain 73 22.5 65 18.5 78 78 N 10 17 29.77 1008 10 16 0.03 0.76
8:55 am 08:55 Sunny with Nearby Thunderstorms 74 23.2 65 18.2 74 74 NNW 10 17 29.80 1009 10 16 0.03 0.76
9:15 am 09:15 Partly Cloudy 75 23.9 64 17.8 69 69 NNE 7 11 29.80 1009 10 16 0.00 0.00
9:35 am 09:35 Sunny 76 24.6 65 18.1 67 67 Calm 29.80 1009 10 16 0.00 0.00
9:55 am 09:55 Sunny 78 25.6 69 20.3 73 73 NNW 7 11 29.83 1010 10 16 0.01 0.25
10:15 am 10:15 Sunny 80 26.5 68 19.8 67 67 N 3 6 29.80 1009 10 16 0.00 0.00
10:35 am 10:35 Sunny 82 27.7 65 18.6 58 58 Calm 29.77 1008 10 16 0.00 0.00
10:55 am 10:55 Sunny 82 27.9 68 19.9 62 62 Calm 29.77 1008 10 16 0.00 0.00
11:15 am 11:15 Sunny with Thunderstorms 82 27.7 68 20.2 64 64 N 9 15 29.83 1010 10 16 0.00 0.00
11:35 am 11:35 Mostly Cloudy 80 26.7 71 21.4 73 73 N 15 24 29.83 1010 10 16 0.00 0.00
11:55 am 11:55 Partly Cloudy with Nearby Thunderstorms 79 26.1 70 20.9 73 73 N 12 19 29.88 1012 10 16 0.00 0.00
12:15 pm 12:15 Sunny 78 25.5 69 20.3 73 73 N 15 24 29.88 1012 10 16 0.00 0.00
12:35 pm 12:35 Sunny 76 24.3 67 19.3 74 74 N 10 17 29.88 1012 10 16 0.00 0.00
12:55 pm 12:55 Sunny 76 24.2 65 18.6 71 71 NNE 16 26 29.88 1012 7 11 0.00 0.00
1:15 pm 13:15 Sunny 76 24.6 65 18.5 69 69 NNE 21 33 29.88 1012 10 16 0.00 0.00
1:35 pm 13:35 Sunny 77 24.8 65 18.4 68 68 NE 20 31 29.88 1012 10 16 0.00 0.00
1:55 pm 13:55 Sunny 78 25.4 65 18.3 65 65 NE 18 30 29.88 1012 10 16 0.00 0.00
2:15 pm 14:15 Sunny 78 25.5 63 17.2 60 60 NE 17 28 29.88 1012 10 16 0.00 0.00
2:35 pm 14:35 Mostly Cloudy 78 25.5 62 16.8 59 59 NE 17 28 29.88 1012 10 16 0.00 0.00
2:55 pm 14:55 Partly Cloudy 79 25.9 62 16.4 56 56 ENE 15 24 29.88 1012 10 16 0.00 0.00
3:15 pm 15:15 Partly Cloudy 79 26.2 63 17 57 57 ENE 13 20 29.88 1012 10 16 0.00 0.00
3:35 pm 15:35 Partly Cloudy 78 25.8 61 16.3 56 56 ENE 14 22 29.88 1012 10 16 0.00 0.00
3:55 pm 15:55 Mostly Cloudy with Light Rain 79 26.1 63 17.1 58 58 ENE 12 19 29.91 1013 10 16 0.00 0.00
4:15 pm 16:15 Sunny 79 26 62 16.9 57 57 ENE 13 20 29.91 1013 10 16 0.00 0.00
4:35 pm 16:35 Sunny 80 26.5 64 17.9 59 59 ENE 9 15 29.91 1013 10 16 0.00 0.00
4:55 pm 16:55 Sunny 81 27 64 18 58 58 NE 12 19 29.91 1013 10 16 0.00 0.00
5:15 pm 17:15 Sunny 80 26.5 63 17.4 57 57 ENE 12 19 29.91 1013 10 16 0.00 0.00
5:35 pm 17:35 Sunny 80 26.5 62 16.9 56 56 ENE 14 22 29.91 1013 10 16 0.00 0.00
5:55 pm 17:55 Sunny 78 25.5 62 16.8 59 59 NE 9 15 29.91 1013 10 16 0.00 0.00
6:15 pm 18:15 Sunny 77 25 62 16.6 60 60 NE 10 17 29.91 1013 10 16 0.00 0.00
6:35 pm 18:35 Sunny 77 25.2 61 16.2 58 58 NE 12 19 29.91 1013 10 16 0.00 0.00
6:55 pm 18:55 Sunny 76 24.7 62 16.5 60 60 NNE 12 19 29.91 1013 10 16 0.00 0.00
7:15 pm 19:15 Sunny 76 24.7 62 16.6 61 61 NE 10 17 29.91 1013 10 16 0.00 0.00
7:35 pm 19:35 Sunny 76 24.3 63 17.2 65 65 NE 10 17 29.91 1013 10 16 0.00 0.00
7:55 pm 19:55 Sunny 76 24.3 62 16.6 62 62 NE 12 19 29.91 1013 10 16 0.00 0.00
8:15 pm 20:15 Sunny 76 24.2 62 16.6 63 63 NE 8 13 29.91 1013 10 16 0.00 0.00
8:35 pm 20:35 Sunny 75 23.7 62 16.4 64 64 NE 7 11 29.91 1013 10 16 0.00 0.00
8:55 pm 20:55 Sunny 74 23.5 61 16 63 63 NNE 6 9 29.94 1014 10 16 0.00 0.00
9:15 pm 21:15 Clear 73 22.5 61 16.3 68 68 N 5 7 29.94 1014 10 16 0.00 0.00
9:35 pm 21:35 Clear 72 22 61 16.2 70 70 NNE 6 9 29.94 1014 10 16 0.00 0.00
9:55 pm 21:55 Clear 72 22.3 60 15.6 66 66 NE 6 9 29.94 1014 10 16 0.00 0.00
10:15 pm 22:15 Clear 72 22 60 15.7 68 68 NNE 6 9 29.94 1014 10 16 0.00 0.00
10:35 pm 22:35 Partly Cloudy 71 21.7 60 15.7 69 69 NE 6 9 29.94 1014 10 16 0.00 0.00
10:55 pm 22:55 Mostly Cloudy 72 22 60 15.5 67 67 NE 7 11 29.94 1014 10 16 0.00 0.00
11:15 pm 23:15 Cloudy 72 22 60 15.5 67 67 NE 7 11 29.97 1015 10 16 0.00 0.00
11:35 pm 23:35 Mostly Cloudy 71 21.6 60 15.6 69 69 NE 7 11 29.97 1015 10 16 0.00 0.00
11:55 pm 23:55 Partly Cloudy 71 21.8 59 15.2 66 66 NNE 6 9 29.97 1015 10 16 0.00 0.00

Powered by AerisWeather